This demonstration page uses our WeatherBlox Daily Observations layout. Learn more.

Left ArrowRight Arrow

Hourly Observations for January 15, 2018

Temp ( °F °C ) Dew Point ( °F °C ) Humidity (%) Winds ( mph kmh ) Pressure ( in mb ) Visibility ( mi km ) Precip ( " mm )
12:15 am 00:15 Cloudy 16 -9 16 -9 100 100 SSE 10 17 30.42 1030 3 5 N/A
12:35 am 00:35 Cloudy 16 -9 16 -9 100 100 SSE 12 19 30.42 1030 3 4 N/A
12:55 am 00:55 Cloudy 16 -9 16 -9 100 100 SSE 10 17 30.42 1030 3 4 N/A
1:15 am 01:15 Cloudy 16 -9 14 -10 93 93 SSE 10 17 30.39 1029 3 5 N/A
1:35 am 01:35 Cloudy 16 -9 14 -10 93 93 SSE 8 13 30.39 1029 3 5 N/A
1:55 am 01:55 Cloudy 16 -9 14 -10 93 93 SSE 12 19 30.39 1029 4 6 N/A
2:15 am 02:15 Cloudy 16 -9 14 -10 93 93 SSE 12 19 30.39 1029 4 6 N/A
2:35 am 02:35 Cloudy 16 -9 14 -10 93 93 S 9 15 30.39 1029 3 5 N/A
2:55 am 02:55 Cloudy 16 -9 16 -9 100 100 SSE 10 17 30.36 1028 3 5 N/A
3:15 am 03:15 Cloudy 16 -9 16 -9 100 100 SSE 10 17 30.36 1028 2 3 N/A
3:35 am 03:35 Cloudy 16 -9 16 -9 100 100 SSE 12 19 30.36 1028 3 4 N/A
3:55 am 03:55 Cloudy 16 -9 16 -9 100 100 S 12 19 30.33 1027 3 5 N/A
4:15 am 04:15 Cloudy 16 -9 16 -9 100 100 S 9 15 30.33 1027 3 5 N/A
4:35 am 04:35 Cloudy 16 -9 16 -9 100 100 SSE 9 15 30.33 1027 3 4 N/A
4:55 am 04:55 Cloudy 16 -9 16 -9 100 100 SSE 13 20 30.30 1026 3 5 N/A
5:15 am 05:15 Cloudy 16 -9 16 -9 100 100 S 12 19 30.30 1026 4 6 N/A
5:35 am 05:35 Cloudy 16 -9 16 -9 100 100 S 12 19 30.30 1026 5 8 N/A
5:55 am 05:55 Cloudy 16 -9 16 -9 100 100 S 13 20 30.30 1026 10 16 N/A
6:15 am 06:15 Cloudy 18 -8 16 -9 93 93 S 13 20 30.30 1026 10 16 N/A
6:35 am 06:35 Cloudy 18 -8 18 -8 100 100 S 13 20 30.30 1026 4 6 N/A
6:55 am 06:55 Cloudy 18 -8 18 -8 100 100 S 12 19 30.30 1026 3 5 N/A
7:15 am 07:15 Cloudy 18 -8 18 -8 100 100 S 10 17 30.30 1026 3 5 N/A
7:35 am 07:35 Cloudy 18 -8 18 -8 100 100 S 10 17 30.30 1026 5 8 N/A
7:55 am 07:55 Cloudy 18 -8 18 -8 100 100 S 13 20 30.30 1026 5 8 N/A
8:15 am 08:15 Cloudy 18 -8 18 -8 100 100 S 10 17 30.27 1025 3 4 N/A
8:35 am 08:35 Cloudy 18 -8 18 -8 100 100 S 12 19 30.27 1025 3 5 N/A
8:55 am 08:55 Cloudy 19 -7 19 -7 100 100 S 10 17 30.27 1025 4 6 N/A
9:15 am 09:15 Cloudy 19 -7 19 -7 100 100 S 9 15 30.27 1025 3 5 N/A
9:35 am 09:35 Cloudy 19 -7 19 -7 100 100 S 9 15 30.27 1025 2 3 N/A
9:55 am 09:55 Cloudy 19 -7 19 -7 100 100 S 8 13 30.30 1026 2 2 N/A
10:15 am 10:15 Cloudy 19 -7 19 -7 100 100 S 12 19 30.30 1026 2 3 N/A
10:35 am 10:35 Cloudy 19 -7 19 -7 100 100 S 10 17 30.27 1025 2 2 N/A
10:55 am 10:55 Cloudy 21 -6 21 -6 100 100 S 9 15 30.30 1026 1 2 N/A
11:15 am 11:15 Cloudy 21 -6 21 -6 100 100 S 10 17 30.27 1025 2 3 N/A
11:35 am 11:35 Cloudy 21 -6 21 -6 100 100 S 12 19 30.27 1025 3 5 N/A
11:55 am 11:55 Cloudy 21 -6 21 -6 100 100 S 10 17 30.27 1025 4 6 N/A
12:15 pm 12:15 Cloudy 23 -5 21 -6 93 93 SSW 10 17 30.27 1025 5 8 N/A
12:35 pm 12:35 Cloudy 23 -5 21 -6 93 93 SSW 9 15 30.27 1025 7 11 N/A
12:55 pm 12:55 Cloudy 23 -5 21 -6 93 93 SSW 8 13 30.27 1025 10 16 N/A
1:15 pm 13:15 Cloudy 23 -5 21 -6 93 93 SW 10 17 N/A 10 16 N/A
1:35 pm 13:35 Cloudy 23 -5 23 -5 100 100 WSW 12 19 30.27 1025 10 16 N/A
1:55 pm 13:55 Cloudy 23 -5 23 -5 100 100 SW 12 19 30.27 1025 5 8 N/A
2:15 pm 14:15 Cloudy 23 -5 23 -5 100 100 SW 12 19 30.27 1025 2 3 N/A
2:35 pm 14:35 Cloudy 23 -5 23 -5 100 100 WSW 13 20 30.27 1025 3 4 N/A
2:55 pm 14:55 Cloudy 23 -5 23 -5 100 100 WSW 10 17 30.27 1025 3 4 N/A
3:15 pm 15:15 Cloudy 23 -5 23 -5 100 100 WSW 12 19 30.27 1025 4 6 N/A
3:35 pm 15:35 Cloudy 25 -4 25 -4 100 100 WSW 9 15 30.27 1025 5 8 N/A
3:55 pm 15:55 Cloudy 25 -4 25 -4 100 100 WSW 13 20 30.27 1025 4 6 N/A
4:15 pm 16:15 Cloudy 25 -4 25 -4 100 100 WSW 12 19 30.30 1026 5 8 N/A
4:35 pm 16:35 Cloudy 25 -4 25 -4 100 100 WSW 9 15 30.30 1026 7 11 N/A
4:55 pm 16:55 Cloudy 25 -4 23 -5 93 93 WSW 12 19 30.30 1026 10 16 N/A
5:15 pm 17:15 Cloudy 25 -4 21 -6 86 86 W 16 26 30.30 1026 10 16 N/A
5:35 pm 17:35 Cloudy 23 -5 19 -7 86 86 W 17 28 30.33 1027 10 16 N/A
5:55 pm 17:55 Cloudy 23 -5 18 -8 80 80 W 17 28 30.33 1027 10 16 N/A
6:15 pm 18:15 Cloudy 21 -6 18 -8 86 86 W 16 26 30.36 1028 10 16 N/A
6:35 pm 18:35 Cloudy 21 -6 18 -8 86 86 W 16 26 30.36 1028 10 16 N/A
6:55 pm 18:55 Cloudy 18 -8 16 -9 93 93 W 17 28 30.39 1029 7 11 N/A
7:15 pm 19:15 Cloudy 16 -9 14 -10 93 93 W 16 26 30.39 1029 10 16 N/A
7:35 pm 19:35 Cloudy 14 -10 12 -11 92 92 W 17 28 30.39 1029 10 16 N/A
7:55 pm 19:55 Cloudy 14 -10 12 -11 92 92 W 15 24 30.39 1029 10 16 N/A
8:15 pm 20:15 Cloudy 12 -11 10 -12 92 92 W 17 28 30.45 1031 7 11 N/A
8:35 pm 20:35 Mostly Cloudy 10 -12 9 -13 92 92 W 18 30 30.45 1031 10 16 N/A
8:55 pm 20:55 Partly Cloudy 10 -12 7 -14 85 85 W 15 24 30.45 1031 10 16 N/A
9:15 pm 21:15 Mostly Cloudy 10 -12 7 -14 85 85 W 12 19 30.48 1032 10 16 N/A
9:35 pm 21:35 Cloudy 9 -13 7 -14 92 92 W 12 19 30.48 1032 10 16 N/A
9:55 pm 21:55 Cloudy 9 -13 7 -14 92 92 W 16 26 30.48 1032 10 16 N/A
10:15 pm 22:15 Mostly Cloudy 9 -13 5 -15 85 85 W 14 22 30.48 1032 10 16 N/A
10:35 pm 22:35 Partly Cloudy 7 -14 3 -16 85 85 W 18 30 30.48 1032 10 16 N/A
10:55 pm 22:55 Clear 7 -14 3 -16 85 85 W 14 22 30.50 1033 10 16 N/A
11:15 pm 23:15 Clear 7 -14 3 -16 85 85 W 12 19 30.50 1033 10 16 N/A
11:35 pm 23:35 Mostly Cloudy 5 -15 3 -16 92 92 W 15 24 30.50 1033 10 16 N/A
11:55 pm 23:55 Mostly Cloudy 5 -15 1 -17 85 85 W 14 22 30.50 1033 10 16 N/A

Powered by AerisWeather